DW8633 Weather Reports


Display with metric or nautical units.
time (UTC)temp
F
wind
direction
speed
MPH
gust
MPH
rain 1hr
in
rain 24hr
in
rain mn
in
humidity
%
barometer
mb
20260903004034 83 120 16.0 23.0 0.00 0.00 0.00 52 925.0
20260903003530 83 117 14.0 23.0 0.00 0.00 0.00 51 925.0
20260903003030 83 122 14.0 25.0 0.00 0.00 0.00 51 925.1
20260903002530 84 142 15.0 25.0 0.00 0.00 0.00 50 925.1
20260903001528 84 124 16.0 23.0 0.00 0.00 0.00 49 925.0
20260903001028 85 114 14.0 22.0 0.00 0.00 0.00 48 925.1
20260903000527 85 107 13.0 21.0 0.00 0.00 0.00 49 925.2
20260903000027 85 107 14.0 23.0 0.00 0.00 0.00 49 925.1
20260902235527 85 122 16.0 23.0 0.00 0.00 0.00 48 925.1
20260902235027 85 109 16.0 23.0 0.00 0.00 0.00 47 925.2
20260902234525 86 115 12.0 21.0 0.00 0.00 0.00 47 925.2
20260902234025 86 130 13.0 22.0 0.00 0.00 0.00 47 925.3
20260902233525 86 128 16.0 23.0 0.00 0.00 0.00 47 925.4
20260902233025 86 121 14.0 23.0 0.00 0.00 0.00 47 925.3
20260902232524 86 128 14.0 22.0 0.00 0.00 0.00 47 925.4
20260902231531 86 111 13.0 19.0 0.00 0.00 0.00 48 925.3
20260902231025 85 123 15.0 21.0 0.00 0.00 0.00 48 925.4
20260902230524 84 133 15.0 21.0 0.00 0.00 0.00 48 925.5
20260902230024 84 129 11.0 21.0 0.00 0.00 0.00 47 925.6
20260902225524 85 134 11.0 21.0 0.00 0.00 0.00 47 925.5
20260902225024 86 127 11.0 20.0 0.00 0.00 0.00 46 925.5
20260902224529 86 143 13.0 21.0 0.00 0.00 0.00 46 925.6
20260902224024 86 121 13.0 22.0 0.00 0.00 0.00 46 925.5
20260902223526 87 131 15.0 23.0 0.00 0.00 0.00 45 925.6
20260902223026 87 132 16.0 24.0 0.00 0.00 0.00 46 925.6
20260902222521 87 130 14.0 24.0 0.00 0.00 0.00 45 925.7
20260902221521 87 123 14.0 21.0 0.00 0.00 0.00 45 925.7
20260902221021 87 130 14.0 21.0 0.00 0.00 0.00 45 925.8
20260902220521 87 113 12.0 21.0 0.00 0.00 0.00 46 925.8
20260902220020 86 107 12.0 20.0 0.00 0.00 0.00 46 925.7
20260902215525 85 130 13.0 22.0 0.00 0.00 0.00 47 925.8
20260902215019 86 132 15.0 22.0 0.00 0.00 0.00 47 925.9
20260902214519 86 126 12.0 23.0 0.00 0.00 0.00 46 925.9
20260902214019 87 126 15.0 23.0 0.00 0.00 0.00 46 925.9
20260902213518 87 152 14.0 23.0 0.00 0.00 0.00 46 926.0
20260902213016 86 121 14.0 23.0 0.00 0.00 0.00 47 926.0
20260902212516 86 120 15.0 26.0 0.00 0.00 0.00 47 926.2
20260902211517 86 119 17.0 24.0 0.00 0.00 0.00 47 926.1
20260902211015 87 121 15.0 23.0 0.00 0.00 0.00 47 926.2
20260902210514 86 124 13.0 24.0 0.00 0.00 0.00 48 926.1
20260902210014 86 120 12.0 24.0 0.00 0.00 0.00 48 926.3
20260902205513 86 140 13.0 22.0 0.00 0.00 0.00 48 926.3
20260902205013 86 119 14.0 24.0 0.00 0.00 0.00 48 926.3
20260902204516 86 128 17.0 25.0 0.00 0.00 0.00 47 926.6
20260902204014 86 121 16.0 25.0 0.00 0.00 0.00 48 926.4
20260902203511 86 108 12.0 23.0 0.00 0.00 0.00 49 926.5
20260902203011 86 133 14.0 23.0 0.00 0.00 0.00 48 926.5
20260902202510 85 129 13.0 22.0 0.00 0.00 0.00 48 926.7
20260902201558 86 138 13.0 24.0 0.00 0.00 0.00 48 926.9
20260902201042 86 134 17.0 23.0 0.00 0.00 0.00 47 926.9
20260902200538 86 130 14.0 22.0 0.00 0.00 0.00 48 926.8
20260902200051 86 129 15.0 22.0 0.00 0.00 0.00 49 926.9
20260902195537 85 154 16.0 25.0 0.00 0.00 0.00 49 927.0
20260902195037 86 133 13.0 25.0 0.00 0.00 0.00 49 927.0
20260902194534 85 132 13.0 24.0 0.00 0.00 0.00 50 927.0
20260902194035 85 127 14.0 24.0 0.00 0.00 0.00 49 927.2
20260902193532 85 124 15.0 23.0 0.00 0.00 0.00 50 927.1
20260902193031 85 117 14.0 25.0 0.00 0.00 0.00 50 927.3
20260902192531 84 137 16.0 25.0 0.00 0.00 0.00 50 927.4
20260902191519 84 138 17.0 25.0 0.00 0.00 0.00 50 927.5
20260902191018 83 105 17.0 27.0 0.00 0.00 0.00 51 927.5
20260902190519 84 117 15.0 27.0 0.00 0.00 0.00 51 927.6
20260902190027 84 134 20.0 28.0 0.00 0.00 0.00 51 927.6
20260902185515 83 133 17.0 28.0 0.00 0.00 0.00 52 927.7
20260902185013 83 111 17.0 26.0 0.00 0.00 0.00 51 927.7
20260902184516 83 126 16.0 27.0 0.00 0.00 0.00 52 927.8
20260902184012 83 172 18.0 27.0 0.00 0.00 0.00 53 928.1
20260902183513 82 122 16.0 23.0 0.00 0.00 0.00 53 928.0
20260902183012 83 140 16.0 23.0 0.00 0.00 0.00 53 928.1
20260902182509 83 142 14.0 22.0 0.00 0.00 0.00 53 928.1
20260902181550 82 138 16.0 22.0 0.00 0.00 0.00 54 928.3
20260902181048 82 130 15.0 24.0 0.00 0.00 0.00 54 928.4
20260902180547 81 106 18.0 24.0 0.00 0.00 0.00 55 928.5
20260902180047 81 144 15.0 26.0 0.00 0.00 0.00 56 928.5
20260902175545 81 118 15.0 26.0 0.00 0.00 0.00 56 928.6
20260902175045 81 148 14.0 24.0 0.00 0.00 0.00 57 928.7
20260902174545 81 121 17.0 25.0 0.00 0.00 0.00 56 928.8
20260902174045 80 122 16.0 23.0 0.00 0.00 0.00 56 928.8
20260902173543 80 142 14.0 24.0 0.00 0.00 0.00 57 928.9
20260902173043 80 163 16.0 25.0 0.00 0.00 0.00 57 928.9
20260902172541 79 140 18.0 25.0 0.00 0.00 0.00 58 928.9
20260902171540 79 131 16.0 23.0 0.00 0.00 0.00 60 929.0
20260902171040 78 138 13.0 21.0 0.00 0.00 0.00 62 929.0
20260902170538 77 150 15.0 25.0 0.00 0.00 0.00 63 929.0
20260902170036 78 131 12.0 21.0 0.00 0.00 0.00 63 929.1
20260902165535 76 95 13.0 23.0 0.00 0.00 0.00 66 929.1
20260902165035 76 137 14.0 24.0 0.00 0.00 0.00 66 929.1
20260902164534 76 129 14.0 24.0 0.00 0.00 0.00 67 929.2
20260902164032 75 132 14.0 22.0 0.00 0.00 0.00 67 929.1
20260902163530 75 123 14.0 21.0 0.00 0.00 0.00 67 929.3
20260902163028 75 360 14.0 21.0 0.00 0.00 0.00 67 929.3
20260902162527 74 360 12.0 19.0 0.00 0.00 0.00 66 929.4
20260902161536 73 360 15.0 20.0 0.00 0.00 0.00 65 929.5
20260902161025 73 360 12.0 19.0 0.00 0.00 0.00 67 929.5
20260902160523 72 360 11.0 19.0 0.00 0.00 0.00 65 929.6
20260902160025 72 360 12.0 20.0 0.00 0.00 0.00 65 929.7
20260902155521 71 360 15.0 20.0 0.00 0.00 0.00 63 929.8
20260902155020 71 360 11.0 19.0 0.00 0.00 0.00 64 929.8
20260902154526 70 360 12.0 21.0 0.00 0.00 0.00 64 929.9
20260902154117 70 360 14.0 21.0 0.00 0.00 0.00 64 929.9
20260902153518 70 360 12.0 19.0 0.00 0.00 0.00 63 930.0
20260902153018 70 134 12.0 21.0 0.00 0.00 0.00 64 930.1
20260902152514 69 142 13.0 21.0 0.00 0.00 0.00 64 930.0
20260902151516 69 130 13.0 19.0 0.00 0.00 0.00 64 930.0
20260902151015 68 125 12.0 19.0 0.00 0.00 0.00 65 930.0
20260902150513 68 126 12.0 18.0 0.00 0.00 0.00 64 930.0
20260902150015 67 128 11.0 18.0 0.00 0.00 0.00 65 929.9
20260902145511 67 360 10.0 19.0 0.00 0.00 0.00 65 929.9
20260902145011 67 131 12.0 19.0 0.00 0.00 0.00 65 930.0
20260902144510 66 119 11.0 19.0 0.00 0.00 0.00 66 930.0
20260902144007 65 118 12.0 19.0 0.00 0.00 0.00 66 930.0
20260902143507 65 360 11.0 18.0 0.00 0.00 0.00 67 930.1
20260902143005 65 360 11.0 16.0 0.00 0.00 0.00 68 930.2
20260902142504 64 360 11.0 16.0 0.00 0.00 0.00 69 930.2
20260902141501 63 360 9.0 14.0 0.00 0.00 0.00 72 930.2
20260902141100 62 360 9.0 13.0 0.00 0.00 0.00 73 930.2
20260902141001 62 360 9.0 13.0 0.00 0.00 0.00 73 930.2
20260902140600 61 360 9.0 13.0 0.00 0.00 0.00 74 930.2
20260902140501 61 360 9.0 13.0 0.00 0.00 0.00 74 930.2
20260902140000 60 360 9.0 11.0 0.00 0.00 0.00 76 930.1
20260902135600 60 360 8.0 11.0 0.00 0.00 0.00 77 930.1
20260902135059 59 360 7.0 11.0 0.00 0.00 0.00 78 930.1
20260902134600 58 360 7.0 10.0 0.00 0.00 0.00 79 930.2
20260902134059 57 360 7.0 12.0 0.00 0.00 0.00 80 930.1
20260902133559 57 360 7.0 11.0 0.00 0.00 0.00 81 930.1
20260902133100 56 360 7.0 10.0 0.00 0.00 0.00 83 930.3
20260902132603 55 360 7.0 10.0 0.00 0.00 0.00 84 930.3
20260902131607 54 360 5.0 8.0 0.00 0.00 0.00 85 930.2
20260902131100 53 360 5.0 8.0 0.00 0.00 0.00 86 930.2
20260902130600 53 360 5.0 7.0 0.00 0.00 0.00 86 930.2
20260902130100 53 360 3.0 6.0 0.00 0.00 0.00 86 930.2
20260902125601 52 360 1.0 3.0 0.00 0.00 0.00 86 930.2
20260902125059 52 360 0.0 4.0 0.00 0.00 0.00 87 930.3
20260902124602 52 360 0.0 3.0 0.00 0.00 0.00 88 930.3
20260902124059 51 360 2.0 3.0 0.00 0.00 0.00 87 930.4
20260902123558 51 360 0.0 4.0 0.00 0.00 0.00 86 930.2
20260902123059 51 360 2.0 4.0 0.00 0.00 0.00 86 930.1
20260902122558 51 360 2.0 4.0 0.00 0.00 0.00 86 930.2
20260902121603 51 360 3.0 5.0 0.00 0.00 0.00 86 930.0
20260902121058 51 360 2.0 4.0 0.00 0.00 0.00 85 930.0
20260902120557 51 360 2.0 5.0 0.00 0.00 0.00 84 930.1
20260902120055 52 360 3.0 5.0 0.00 0.00 0.00 84 930.1
20260902115554 52 360 2.0 7.0 0.00 0.00 0.00 84 930.0
20260902115057 53 360 5.0 8.0 0.00 0.00 0.00 84 930.1
20260902114555 53 360 5.0 9.0 0.00 0.00 0.00 84 930.1
20260902114055 53 360 5.0 9.0 0.00 0.00 0.00 84 930.0
20260902113553 53 360 5.0 8.0 0.00 0.00 0.00 84 930.1
20260902113108 53 360 5.0 8.0 0.00 0.00 0.00 84 930.0
20260902112553 53 360 6.0 8.0 0.00 0.00 0.00 84 930.1
20260902111600 53 360 6.0 8.0 0.00 0.00 0.00 84 930.0
20260902111053 53 360 6.0 8.0 0.00 0.00 0.00 84 930.1
20260902110555 53 360 6.0 8.0 0.00 0.00 0.00 84 930.1
20260902110055 53 360 6.0 8.0 0.00 0.00 0.00 84 930.2
20260902105553 53 360 6.0 8.0 0.00 0.00 0.00 84 930.2
20260902105050 53 360 5.0 7.0 0.00 0.00 0.00 84 930.4
20260902104549 52 360 5.0 6.0 0.00 0.00 0.00 84 930.3
20260902104049 52 360 5.0 6.0 0.00 0.00 0.00 84 930.4
20260902103548 53 360 4.0 6.0 0.00 0.00 0.00 83 930.3
20260902103049 53 360 4.0 7.0 0.00 0.00 0.00 83 930.4
20260902102547 53 360 5.0 7.0 0.00 0.00 0.00 83 930.5
20260902102147 53 360 5.0 8.0 0.00 0.00 0.00 83 930.6
20260902101554 53 360 5.0 8.0 0.00 0.00 0.00 83 930.5
20260902101047 53 360 5.0 8.0 0.00 0.00 0.00 83 930.5
20260902100547 53 360 6.0 8.0 0.00 0.00 0.00 82 930.5
20260902100047 53 360 5.0 8.0 0.00 0.00 0.00 82 930.5
20260902095547 53 360 6.0 8.0 0.00 0.00 0.00 83 930.6
20260902095045 53 360 5.0 6.0 0.00 0.00 0.00 82 930.6
20260902094550 53 360 4.0 6.0 0.00 0.00 0.00 81 930.5
20260902094044 54 360 5.0 7.0 0.00 0.00 0.00 80 930.5
20260902093546 54 360 5.0 8.0 0.00 0.00 0.00 79 930.6
20260902093041 55 360 5.0 8.0 0.00 0.00 0.00 79 930.5
20260902092544 55 360 5.0 7.0 0.00 0.00 0.00 78 930.4
20260902092143 56 360 4.0 7.0 0.00 0.00 0.00 77 930.5
20260902091545 56 360 5.0 8.0 0.00 0.00 0.00 77 930.5
20260902091037 56 360 6.0 8.0 0.00 0.00 0.00 76 930.6
20260902090537 57 360 6.0 8.0 0.00 0.00 0.00 76 930.5
20260902090035 57 360 5.0 8.0 0.00 0.00 0.00 76 930.6
20260902085534 57 360 5.0 8.0 0.00 0.00 0.00 76 930.5
20260902085034 57 360 5.0 8.0 0.00 0.00 0.00 76 930.5
20260902084535 57 360 6.0 8.0 0.00 0.00 0.00 76 930.6
20260902084034 57 360 5.0 8.0 0.00 0.00 0.00 76 930.6
20260902083532 57 360 5.0 8.0 0.00 0.00 0.00 76 930.6
20260902083031 57 360 5.0 8.0 0.00 0.00 0.00 75 930.6
20260902082531 57 360 5.0 8.0 0.00 0.00 0.00 74 930.6
20260902082130 59 360 6.0 9.0 0.00 0.00 0.00 73 930.6
20260902081529 59 360 5.0 9.0 0.00 0.00 0.00 72 930.7
20260902081029 59 360 6.0 8.0 0.00 0.00 0.00 72 930.8
20260902080529 59 360 6.0 9.0 0.00 0.00 0.00 72 930.8
20260902080032 59 360 6.0 9.0 0.00 0.00 0.00 72 930.8
20260902075527 59 360 6.0 8.0 0.00 0.00 0.00 71 930.8
20260902075026 60 360 5.0 8.0 0.00 0.00 0.00 71 930.8
20260902074526 60 360 5.0 8.0 0.00 0.00 0.00 71 930.8
20260902074025 60 360 6.0 8.0 0.00 0.00 0.00 71 930.8
20260902073527 60 360 6.0 8.0 0.00 0.00 0.00 70 930.9
20260902073024 60 360 5.0 8.0 0.00 0.00 0.00 70 931.0
20260902072522 61 360 6.0 9.0 0.00 0.00 0.00 69 930.9
20260902072123 61 360 6.0 10.0 0.00 0.00 0.00 69 930.9
20260902071527 61 360 7.0 10.0 0.00 0.00 0.00 69 931.0
20260902071020 62 360 7.0 10.0 0.00 0.00 0.00 68 930.8
20260902070517 62 360 6.0 9.0 0.00 0.00 0.00 68 930.9
20260902070024 62 360 7.0 9.0 0.00 0.00 0.00 67 930.9
20260902065521 62 360 6.0 10.0 0.00 0.00 0.00 67 930.9
20260902065017 62 360 6.0 10.0 0.00 0.00 0.00 68 930.9
20260902064515 63 360 7.0 9.0 0.00 0.00 0.00 67 930.9
20260902064014 63 360 6.0 9.0 0.00 0.00 0.00 67 930.9
20260902063516 63 360 6.0 9.0 0.00 0.00 0.00 67 930.9
20260902063016 63 360 7.0 9.0 0.00 0.00 0.00 67 931.0
20260902062513 63 360 6.0 10.0 0.00 0.00 0.00 66 931.0
20260902061512 64 360 7.0 10.0 0.00 0.00 0.00 66 930.9
20260902061011 64 360 7.0 9.0 0.00 0.00 0.00 65 930.9
20260902060511 64 360 6.0 9.0 0.00 0.00 0.00 64 931.0
20260902060016 65 360 7.0 9.0 0.00 0.00 0.00 64 931.1
20260902055513 65 360 6.0 9.0 0.00 0.00 0.00 64 931.0
20260902055009 65 360 6.0 10.0 0.00 0.00 0.00 64 931.0
20260902054513 65 360 7.0 10.0 0.00 0.00 0.00 64 931.0
20260902054009 65 360 6.0 8.0 0.00 0.00 0.00 64 931.0
20260902053509 65 360 6.0 9.0 0.00 0.00 0.00 64 931.1
20260902053011 65 360 7.0 9.0 0.00 0.00 0.00 64 931.0
20260902052512 65 360 6.0 9.0 0.00 0.00 0.00 63 931.1
20260902052110 66 360 6.0 9.0 0.00 0.00 0.00 62 931.1
20260902051510 66 360 6.0 9.0 0.00 0.00 0.00 61 931.1
20260902051012 66 360 7.0 10.0 0.00 0.00 0.00 61 931.1
20260902050510 66 360 8.0 10.0 0.00 0.00 0.00 61 931.0
20260902050011 66 360 7.0 10.0 0.00 0.00 0.00 62 930.9
20260902045509 65 360 8.0 10.0 0.00 0.00 0.00 62 931.0
20260902045009 65 360 7.0 10.0 0.00 0.00 0.00 62 931.0
20260902044511 65 360 7.0 10.0 0.00 0.00 0.00 62 931.0
20260902044009 65 360 7.0 10.0 0.00 0.00 0.00 61 930.9
20260902043509 66 360 7.0 11.0 0.00 0.00 0.00 61 931.0
20260902043010 66 360 7.0 11.0 0.00 0.00 0.00 61 931.1
20260902042509 65 360 7.0 10.0 0.00 0.00 0.00 61 931.0
20260902041510 65 360 7.0 9.0 0.00 0.00 0.00 61 931.0
20260902041008 65 360 6.0 9.0 0.00 0.00 0.00 61 930.9
20260902040511 65 360 6.0 9.0 0.00 0.00 0.00 62 931.0
20260902040011 64 360 5.0 7.0 0.00 0.00 0.00 62 931.1
20260902035508 64 360 5.0 7.0 0.00 0.00 0.00 62 931.0
20260902035008 64 360 5.0 6.0 0.00 0.00 0.00 62 931.0
20260902034508 65 360 5.0 7.0 0.00 0.00 0.00 61 931.0
20260902034007 65 360 4.0 7.0 0.00 0.00 0.00 60 931.0
20260902033508 65 360 5.0 8.0 0.00 0.00 0.00 60 930.9
20260902033008 66 360 4.0 6.0 0.00 0.00 0.00 59 931.0
20260902032509 67 360 3.0 5.0 0.00 0.00 0.00 58 930.9
20260902032108 68 360 3.0 9.0 0.00 0.00 0.00 56 930.9
20260902031508 68 360 3.0 9.0 0.00 0.00 0.00 56 930.7
20260902031009 68 360 6.0 9.0 0.00 0.00 0.00 55 930.7
20260902030509 69 360 6.0 9.0 0.00 0.00 0.00 55 930.7
20260902030007 69 360 6.0 11.0 0.00 0.00 0.00 54 930.6
20260902025507 70 360 7.0 11.0 0.00 0.00 0.00 54 930.6
20260902025009 70 360 7.0 10.0 0.00 0.00 0.00 54 930.6
20260902024508 70 130 7.0 9.0 0.00 0.00 0.00 53 930.6
20260902024007 70 126 7.0 9.0 0.00 0.00 0.00 53 930.4
20260902023507 70 124 6.0 8.0 0.00 0.00 0.00 53 930.4
20260902023007 70 126 6.0 9.0 0.00 0.00 0.00 53 930.5
20260902022507 71 130 6.0 9.0 0.00 0.00 0.00 51 930.4
20260902021512 71 130 6.0 8.0 0.00 0.00 0.00 50 930.4
20260902021010 72 119 6.0 8.0 0.00 0.00 0.00 49 930.3
20260902020511 72 126 5.0 7.0 0.00 0.00 0.00 48 930.3
20260902020011 72 117 5.0 9.0 0.00 0.00 0.00 48 930.2
20260902015510 73 112 5.0 9.0 0.00 0.00 0.00 47 930.3
20260902015011 73 122 5.0 9.0 0.00 0.00 0.00 47 930.3
20260902014523 73 109 6.0 8.0 0.00 0.00 0.00 47 930.3
20260902014013 73 111 5.0 6.0 0.00 0.00 0.00 47 930.3
20260902013510 74 109 4.0 6.0 0.00 0.00 0.00 46 930.3
20260902013010 75 99 4.0 7.0 0.00 0.00 0.00 44 930.3
20260902012509 76 94 4.0 10.0 0.00 0.00 0.00 44 930.4
20260902011505 76 100 7.0 12.0 0.00 0.00 0.00 43 930.3
20260902011005 76 89 8.0 11.0 0.00 0.00 0.00 43 930.4
20260902010504 76 84 6.0 10.0 0.00 0.00 0.00 44 930.4
20260902010007 76 91 5.0 10.0 0.00 0.00 0.00 44 930.4
20260902005505 76 91 6.0 10.0 0.00 0.00 0.00 43 930.3
20260902005004 77 88 6.0 10.0 0.00 0.00 0.00 43 930.3
20260902004506 77 73 6.0 9.0 0.00 0.00 0.00 43 930.3